[[{"header":{"parameterUnit":"m.s-1","parameterCategory":1,"la1":30.2991,"la2":30.254,"lo1":-89.0895,"lo2":-89.0444,"dy":0.0017,"dx":0.0017,"nx":28,"ny":28,"refTime":"2024-05-26T03:00:00:Z","depth":0,"parameterNumber":2,"parameterNumberName":"U-component_of_WINDS"},"data":[0,0,0,0,0,0,0,0,0,0,0,0,0,0,0,0,0,0,0,0,0,0,0,0,0,0,0,0,0,0,0,0,0,0,0,0,0,0,0,0,0,0,0,0,0,0,0,0,0,0,0,0,0,0,0,0,0,0,-1.2993,-1.2993,0,-1.3032,-1.3032,-1.3032,-1.303,-1.303,-1.3029,-1.3029,-1.3068,-1.307,-1.3072,0,0,0,0,0,0,0,0,0,0,0,0,0,-1.2919,-1.292,-1.2993,-1.2993,-1.2994,-1.3031,-1.3032,-1.3033,-1.303,-1.303,-1.3029,-1.3028,-1.3068,-1.307,-1.3072,0,0,0,0,0,0,0,0,0,0,0,0,0,-1.2953,-1.292,-1.2993,-1.2997,-1.2998,-1.3031,-1.3032,-1.3033,-1.3031,-1.303,-1.3029,-1.3028,-1.3067,-1.307,-1.3072,-1.3103,0,0,-1.3079,-1.308,0,0,0,0,0,0,0,0,-1.2951,-1.2956,-1.2996,-1.2997,-1.2998,-1.3025,-1.302,-1.3056,-1.3031,-1.3018,-1.3029,-1.3028,-1.3055,-1.3058,-1.3067,-1.3105,-1.3107,-1.3079,-1.3081,-1.3082,-1.3083,0,0,0,0,0,0,0,-1.2949,-1.2954,-1.3008,-1.2997,-1.2998,-1.2998,-1.3002,-1.3027,-1.3041,-1.3019,-1.3019,-1.3024,-1.3055,-1.3065,-1.3068,-1.3108,-1.3079,-1.3081,-1.3083,-1.3084,-1.3174,-1.3175,0,0,0,0,0,0,-1.2945,-1.2952,-1.3007,-1.3009,-1.2972,-1.3,-1.3004,-1.3017,-1.304,-1.3043,-1.3024,-1.3024,-1.3061,-1.3065,-1.307,-1.3108,-1.3082,-1.3084,-1.3085,-1.3173,-1.3174,-1.3175,0,0,0,0,0,0,-1.2944,-1.295,-1.3005,-1.2981,-1.2988,-1.3002,-1.3017,-1.3019,-1.3028,-1.3044,-1.3047,-1.3032,-1.3061,-1.3066,-1.3095,-1.3109,-1.3085,-1.3087,-1.3172,-1.3173,-1.3175,-1.3184,0,0,0,0,0,0,-1.2942,-1.295,-1.2961,-1.2981,-1.2989,-1.303,-1.3018,-1.302,-1.3032,-1.3032,-1.3052,-1.3055,-1.3061,-1.3092,-1.3097,-1.3112,-1.3089,-1.3171,-1.3172,-1.3174,-1.3183,-1.3186,-1.3189,0,0,0,0,0,-1.2939,-1.2963,-1.2962,-1.2969,-1.3004,-1.3031,-1.3035,-1.3042,-1.3033,-1.3045,-1.3056,-1.3054,-1.3107,-1.3095,-1.3101,-1.3116,-1.317,-1.3172,-1.3174,-1.3181,-1.3185,-1.3188,0,0,0,0,0,0,-1.2944,-1.2965,-1.2965,-1.2995,-1.3011,-1.303,-1.3045,-1.3045,-1.3064,-1.3062,-1.307,-1.3074,-1.3103,-1.3113,-1.3099,-1.3148,-1.3137,-1.3141,-1.3141,-1.3144,-1.3147,-1.3144,-1.3091,0,0,0,0,0,-1.2949,-1.2968,-1.2986,-1.3011,-1.3019,-1.3031,-1.3043,-1.3046,-1.3063,-1.307,-1.3083,-1.3099,-1.312,-1.3133,-1.3153,-1.3185,-1.3189,-1.3199,-1.3202,-1.3204,-1.3207,-1.3225,-1.3229,-1.3182,-1.3182,-1.3182,0,0,-1.2958,-1.2972,-1.2984,-1.3012,-1.3025,-1.3045,-1.3037,-1.3058,-1.3074,-1.3073,-1.3101,-1.3111,-1.313,-1.3161,-1.3175,-1.317,-1.3221,-1.3207,-1.3208,-1.321,-1.3227,-1.3232,-1.3236,-1.3184,-1.3184,-1.3183,0,0,-1.2986,-1.2999,-1.3021,-1.3034,-1.3054,-1.3062,-1.3067,-1.3087,-1.3093,-1.3122,-1.3122,-1.3141,-1.3176,-1.3189,-1.3201,-1.3235,-1.3234,-1.3242,-1.3256,-1.3274,-1.3277,-1.3281,-1.3293,-1.3297,-1.3245,-1.3245,-1.3245,0,-1.2995,-1.3025,-1.3033,-1.3055,-1.3067,-1.3068,-1.3091,-1.3104,-1.3129,-1.3138,-1.3132,-1.3176,-1.3189,-1.3223,-1.3232,-1.3242,-1.3248,-1.3239,-1.3276,-1.328,-1.3283,-1.3294,-1.3299,-1.3245,-1.3245,-1.3245,-1.3245,0,-1.3036,-1.3057,-1.3073,-1.3097,-1.3112,-1.3134,-1.3145,-1.3159,-1.3162,-1.3171,-1.32,-1.3216,-1.3239,-1.3248,-1.3251,-1.3283,-1.3279,-1.3275,-1.3263,-1.3288,-1.3299,-1.3303,-1.3246,-1.3246,-1.3246,-1.3246,0,0,-1.3066,-1.3095,-1.31,-1.3111,-1.3134,-1.3151,-1.3174,-1.3196,-1.3208,-1.3226,-1.3245,-1.3276,-1.3272,-1.3286,-1.329,-1.3306,-1.3332,-1.33,-1.3301,-1.3305,-1.3368,-1.337,-1.3375,-1.3332,-1.3333,-1.3334,-1.3366,0,-1.3096,-1.3136,-1.3143,-1.3178,-1.3198,-1.32,-1.3221,-1.3237,-1.3246,-1.3265,-1.3275,-1.3296,-1.329,-1.3298,-1.3314,-1.3325,-1.3345,-1.3324,-1.335,-1.3351,-1.3344,-1.3381,-1.3383,-1.3412,-1.337,-1.3371,-1.3372,0,-1.3135,-1.3153,-1.319,-1.3211,-1.3219,-1.3237,-1.3259,-1.3277,-1.3295,-1.3301,-1.3317,-1.332,-1.3344,-1.3333,-1.3367,-1.3353,-1.3364,-1.3372,-1.3373,-1.3375,-1.3362,-1.3382,-1.3422,-1.3426,-1.3378,-1.3378,-1.3377,0,-1.3152,-1.3187,-1.3213,-1.3223,-1.3247,-1.326,-1.3271,-1.3289,-1.3302,-1.3322,-1.333,-1.3353,-1.3364,-1.3382,-1.3391,-1.3382,-1.3425,-1.3414,-1.343,-1.343,-1.3437,-1.3437,-1.3478,-1.3447,-1.3447,-1.3447,-1.3447,0,-1.3184,-1.3206,-1.3222,-1.3238,-1.3263,-1.3273,-1.3298,-1.3308,-1.3325,-1.3343,-1.3347,-1.3365,-1.3377,-1.3397,-1.3405,-1.3431,-1.3437,-1.3442,-1.3444,-1.3441,-1.3441,-1.3448,-1.3446,-1.3448,-1.3448,-1.3447,-1.3447,0,-1.3207,-1.3218,-1.3247,-1.3268,-1.3274,-1.3292,-1.331,-1.3326,-1.3336,-1.336,-1.3366,-1.3382,-1.3405,-1.3417,-1.3446,-1.3451,-1.3482,-1.3482,-1.3475,-1.3475,-1.349,-1.3488,-1.3537,-1.3544,-1.3509,-1.3509,-1.3509,0,-1.3225,-1.3243,-1.3266,-1.3278,-1.3289,-1.331,-1.3324,-1.3334,-1.3348,-1.3372,-1.3385,-1.3409,-1.3428,-1.3465,-1.3479,-1.3502,-1.3503,-1.3519,-1.3506,-1.3503,-1.3502,-1.35,-1.3502,-1.352,-1.352,-1.3521,-1.3521,0,-1.3257,-1.3262,-1.3282,-1.3303,-1.332,-1.3337,-1.3355,-1.3365,-1.3378,-1.3394,-1.3418,-1.3433,-1.3463,-1.3486,-1.351,-1.3522,-1.3524,-1.3525,-1.353,-1.3527,-1.3521,-1.3524,-1.348,-1.3524,-1.3523,-1.3523,-1.3523,-1.3523,-1.3278,-1.3294,-1.3312,-1.3334,-1.3348,-1.3365,-1.3381,-1.3393,-1.3413,-1.3438,-1.3443,-1.3469,-1.3488,-1.352,-1.3533,-1.3553,-1.3549,-1.3556,-1.3558,-1.3559,-1.356,-1.3519,-1.3557,-1.3557,-1.3557,-1.3557,-1.3557,0,-1.331,-1.3322,-1.3342,-1.3366,-1.3384,-1.3384,-1.3404,-1.3418,-1.344,-1.3458,-1.3477,-1.3505,-1.3528,-1.3544,-1.3568,-1.3581,-1.3582,-1.3587,-1.3585,-1.3588,-1.3562,-1.3555,-1.3585,-1.3585,-1.3585,-1.3585,-1.3585,-1.3585,-1.3328,-1.3354,-1.3362,-1.3395,-1.3408,-1.3432,-1.3443,-1.3459,-1.3473,-1.3503,-1.3523,-1.3533,-1.3551,-1.3576,-1.3597,-1.3601,-1.361,-1.3614,-1.3618,-1.3593,-1.359,-1.3587,-1.358,-1.3616,-1.3616,-1.3642,-1.3643,-1.3643]},{"header":{"parameterUnit":"m.s-1","parameterCategory":1,"la1":30.2991,"la2":30.254,"lo1":-89.0895,"lo2":-89.0444,"dy":0.0017,"dx":0.0017,"nx":28,"ny":28,"refTime":"2024-05-26T03:00:00:Z","depth":0,"parameterNumber":3,"parameterNumberName":"V-component_of_WINDS"},"data":[0,0,0,0,0,0,0,0,0,0,0,0,0,0,0,0,0,0,0,0,0,0,0,0,0,0,0,0,0,0,0,0,0,0,0,0,0,0,0,0,0,0,0,0,0,0,0,0,0,0,0,0,0,0,0,0,0,0,5.5327,5.5327,0,5.537,5.5371,5.5371,5.5382,5.5381,5.5381,5.5381,5.5421,5.5422,5.5423,0,0,0,0,0,0,0,0,0,0,0,0,0,5.5249,5.5251,5.5327,5.5327,5.5328,5.537,5.5371,5.5371,5.5382,5.5381,5.5381,5.5381,5.542,5.5422,5.5423,0,0,0,0,0,0,0,0,0,0,0,0,0,5.5287,5.5251,5.5327,5.5338,5.534,5.537,5.5371,5.5372,5.5382,5.5381,5.5381,5.5381,5.542,5.5422,5.5424,5.5444,0,0,5.543,5.5431,0,0,0,0,0,0,0,0,5.5285,5.529,5.5336,5.5337,5.5339,5.537,5.5358,5.5396,5.5382,5.5366,5.5381,5.538,5.5404,5.5407,5.5416,5.5446,5.5448,5.543,5.5431,5.5432,5.5433,0,0,0,0,0,0,0,5.5282,5.5288,5.5344,5.5337,5.5339,5.534,5.5345,5.5365,5.5386,5.5367,5.5368,5.5373,5.5405,5.5414,5.5417,5.5448,5.543,5.5432,5.5433,5.5434,5.5499,5.5499,0,0,0,0,0,0,5.5278,5.5285,5.5342,5.5345,5.531,5.5342,5.5347,5.5361,5.5386,5.539,5.5374,5.5374,5.5411,5.5415,5.5419,5.5446,5.5432,5.5434,5.5435,5.5498,5.5499,5.55,0,0,0,0,0,0,5.5276,5.5283,5.5341,5.5316,5.5323,5.5344,5.5358,5.5362,5.5371,5.5391,5.5395,5.538,5.5411,5.5416,5.5439,5.5447,5.5435,5.5436,5.5498,5.5499,5.5499,5.5499,0,0,0,0,0,0,5.5274,5.5282,5.5291,5.5316,5.5324,5.5361,5.5359,5.5363,5.5375,5.5376,5.5398,5.5401,5.5411,5.5436,5.544,5.545,5.5438,5.5497,5.5498,5.5499,5.5498,5.5499,5.5501,0,0,0,0,0,5.5271,5.5287,5.5291,5.5298,5.5336,5.5361,5.5366,5.5378,5.5376,5.5384,5.5398,5.54,5.5445,5.5438,5.5443,5.5453,5.5497,5.5498,5.5499,5.5497,5.5499,5.5501,0,0,0,0,0,0,5.526,5.5291,5.5295,5.532,5.5339,5.5363,5.5374,5.5379,5.5397,5.5397,5.541,5.5415,5.5437,5.5447,5.5438,5.5475,5.5471,5.5473,5.5468,5.5469,5.5471,5.5468,5.544,0,0,0,0,0,5.5262,5.5281,5.5306,5.5325,5.5335,5.5353,5.5364,5.5373,5.5391,5.5398,5.5413,5.5429,5.5448,5.5459,5.5477,5.55,5.5505,5.5509,5.5511,5.5512,5.5513,5.5528,5.553,5.5504,5.5504,5.5504,0,0,5.5263,5.5282,5.5293,5.5324,5.5339,5.5358,5.5359,5.5378,5.5393,5.54,5.5424,5.5435,5.5455,5.5478,5.5489,5.5487,5.5522,5.5513,5.5514,5.5515,5.5529,5.5532,5.5534,5.5505,5.5504,5.5504,0,0,5.5275,5.5292,5.5311,5.5326,5.535,5.5363,5.5367,5.5392,5.54,5.5424,5.5431,5.5447,5.5478,5.5492,5.5503,5.5524,5.5527,5.5529,5.5535,5.5549,5.5551,5.5553,5.5561,5.5564,5.5531,5.5531,5.5531,0,5.5273,5.5304,5.5319,5.534,5.5353,5.5364,5.5383,5.5397,5.5424,5.5433,5.5431,5.5471,5.5485,5.5513,5.5518,5.5526,5.5532,5.5526,5.555,5.5552,5.5554,5.5562,5.5565,5.5531,5.5531,5.5531,5.5531,0,5.5301,5.5322,5.5335,5.5364,5.5379,5.5398,5.5416,5.5429,5.5436,5.5449,5.5473,5.5491,5.5513,5.552,5.5526,5.5549,5.5547,5.5548,5.5543,5.5556,5.5564,5.5567,5.5531,5.5531,5.5531,5.5531,0,0,5.5306,5.5346,5.535,5.5365,5.5392,5.5408,5.5428,5.5452,5.5464,5.5482,5.55,5.5526,5.5528,5.554,5.5549,5.5561,5.5577,5.556,5.556,5.5563,5.5604,5.5604,5.5608,5.558,5.5581,5.5581,5.5603,0,5.5323,5.5362,5.5377,5.5408,5.5428,5.5439,5.5457,5.5476,5.5488,5.5506,5.5519,5.5539,5.5538,5.5546,5.5559,5.5573,5.5586,5.5571,5.5596,5.5596,5.5591,5.5612,5.5611,5.5631,5.5606,5.5606,5.5607,0,5.5347,5.5369,5.5403,5.5431,5.5439,5.5455,5.5479,5.5497,5.5518,5.5526,5.5542,5.555,5.5571,5.5566,5.5595,5.5585,5.5596,5.5605,5.5606,5.5609,5.5602,5.5615,5.5637,5.5641,5.5611,5.5611,5.5611,0,5.5349,5.5387,5.5412,5.5424,5.5456,5.5468,5.5481,5.5503,5.5517,5.5537,5.5546,5.5568,5.558,5.5596,5.561,5.5605,5.5638,5.5634,5.5645,5.5645,5.5652,5.5651,5.5677,5.5658,5.5658,5.5658,5.5658,0,5.5366,5.5386,5.5414,5.543,5.5453,5.547,5.5492,5.5507,5.5526,5.5544,5.5554,5.5571,5.5588,5.5606,5.5617,5.564,5.5645,5.5652,5.5655,5.5652,5.5651,5.5659,5.5658,5.5659,5.5659,5.5659,5.5658,0,5.5371,5.5391,5.542,5.545,5.5457,5.5473,5.5498,5.5513,5.5527,5.555,5.5556,5.5578,5.56,5.5616,5.5644,5.5651,5.5677,5.5679,5.567,5.5672,5.5683,5.5682,5.5714,5.572,5.5697,5.5697,5.5697,0,5.5381,5.5398,5.543,5.5444,5.5459,5.5481,5.5496,5.5514,5.5529,5.5556,5.5568,5.5592,5.5612,5.5647,5.5665,5.5687,5.5689,5.57,5.5693,5.569,5.5691,5.569,5.5692,5.57,5.5701,5.5701,5.5701,0,5.5396,5.5406,5.5429,5.5455,5.5474,5.5495,5.5516,5.5527,5.5548,5.5564,5.5589,5.5605,5.5635,5.5659,5.5683,5.5696,5.5702,5.5703,5.5707,5.5704,5.5699,5.5703,5.5674,5.5702,5.5702,5.5702,5.5702,5.5702,5.5405,5.5421,5.5447,5.5472,5.5491,5.5511,5.5528,5.5545,5.5566,5.5594,5.5603,5.5629,5.5651,5.5684,5.5698,5.5717,5.5716,5.5722,5.5723,5.5725,5.5725,5.5696,5.5722,5.5722,5.5722,5.5722,5.5721,0,5.5421,5.544,5.5463,5.5494,5.5514,5.552,5.5544,5.556,5.5584,5.5605,5.5625,5.5654,5.5678,5.5698,5.5722,5.5734,5.5737,5.5739,5.5739,5.5742,5.5724,5.5719,5.5736,5.5736,5.5736,5.5736,5.5736,5.5736,5.5432,5.546,5.5474,5.5511,5.5528,5.5556,5.5569,5.5588,5.5605,5.5638,5.5658,5.5672,5.5693,5.5719,5.5741,5.5746,5.5754,5.5756,5.5762,5.5745,5.5743,5.5741,5.5736,5.5758,5.5758,5.5778,5.5778,5.5779]}]]